EW7614 Weather Reports


Display with metric or nautical units.
time (UTC)temp
F
wind
direction
speed
MPH
gust
MPH
rain 1hr
in
rain 24hr
in
rain mn
in
humidity
%
barometer
mb
20260503001521 42 215 0.0 0.0 0.00 0.00 0.00 81 1016.5
20260503000113 42 217 0.0 0.0 0.00 0.00 0.00 80 1016.5
20260502234540 42 217 0.0 0.0 0.00 0.00 0.00 81 1016.6
20260502233132 43 254 0.0 0.0 0.00 0.00 0.00 76 1016.8
20260502231548 44 254 0.0 0.0 0.00 0.00 0.00 78 1016.8
20260502230022 44 254 0.0 0.0 0.00 0.00 0.00 75 1016.9
20260502224613 45 254 0.0 0.0 0.00 0.00 0.00 72 1016.8
20260502223028 46 255 0.0 0.0 0.00 0.00 0.00 70 1016.8
20260502221625 46 204 0.0 0.0 0.00 0.00 0.00 72 1016.9
20260502220046 47 204 0.0 0.0 0.00 0.00 0.00 68 1016.9
20260502214530 48 204 0.0 0.0 0.00 0.00 0.00 69 1016.9
20260502213134 48 203 0.0 0.0 0.00 0.00 0.00 66 1016.8
20260502211543 50 277 0.0 0.0 0.00 0.00 0.00 64 1016.9
20260502210134 50 277 0.0 0.0 0.00 0.00 0.00 64 1016.9
20260502204544 51 263 0.0 0.0 0.00 0.00 0.00 60 1016.8
20260502203132 52 264 0.0 0.0 0.00 0.00 0.00 57 1016.6
20260502201549 52 263 0.0 0.0 0.00 0.00 0.00 56 1016.6
20260502200006 55 265 0.0 0.0 0.00 0.00 0.00 55 1016.5
20260502194603 56 263 0.0 1.0 0.00 0.00 0.00 50 1016.3
20260502193134 57 218 0.0 0.0 0.00 0.00 0.00 49 1016.1
20260502191538 61 302 0.0 7.0 0.00 0.00 0.00 42 1016.0
20260502190120 61 165 0.0 7.0 0.00 0.00 0.00 38 1015.7
20260502184536 63 133 0.0 4.0 0.00 0.00 0.00 37 1015.4
20260502183128 66 283 4.0 12.0 0.00 0.00 0.00 30 1015.1
20260502181536 67 193 5.0 11.0 0.00 0.00 0.00 29 1015.1
20260502180115 67 195 7.0 11.0 0.00 0.00 0.00 28 1015.0
20260502170108 71 194 5.0 11.0 0.00 0.00 0.00 23 1014.7
20260502163115 74 172 1.0 11.0 0.00 0.00 0.00 24 1014.8
20260502161524 74 130 5.0 11.0 0.00 0.00 0.00 24 1014.9
20260502160113 75 205 4.0 10.0 0.00 0.00 0.00 19 1014.9
20260502151508 77 234 0.0 1.0 0.00 0.00 0.00 27 1015.3
20260502150118 77 213 0.0 1.0 0.00 0.00 0.00 29 1015.5
20260502130110 77 148 0.0 2.0 0.00 0.00 0.00 20 1017.3
20260502123011 77 30 0.0 3.0 0.00 0.00 0.00 22 1017.7
20260502121543 77 336 0.0 3.0 0.00 0.00 0.00 22 1017.9
20260502120117 76 89 0.0 2.0 0.00 0.00 0.00 18 1018.2
20260502114508 75 254 0.0 2.0 0.00 0.00 0.00 26 1018.4
20260502111623 73 82 0.0 3.0 0.00 0.00 0.00 31 1018.9
20260502110028 72 85 0.0 3.0 0.00 0.00 0.00 32 1019.3
20260502104607 71 88 0.0 3.0 0.00 0.00 0.00 33 1019.5
20260502103016 69 75 0.0 3.0 0.00 0.00 0.00 36 1019.9
20260502101607 68 348 0.0 2.0 0.00 0.00 0.00 42 1020.1
20260502090118 61 200 0.0 1.0 0.00 0.00 0.00 47 1021.5
20260502071506 50 28 0.0 1.0 0.00 0.00 0.00 65 1023.2
20260502070101 48 280 0.0 0.0 0.00 0.00 0.00 69 1023.5
20260502064511 46 282 0.0 1.0 0.00 0.00 0.00 76 1023.7
20260502063107 44 221 0.0 0.0 0.00 0.00 0.00 81 1023.8
20260502061509 41 215 0.0 0.0 0.00 0.00 0.00 87 1024.1
20260502060109 39 215 0.0 0.0 0.00 0.00 0.00 91 1024.1
20260502054515 37 215 0.0 0.0 0.00 0.00 0.00 92 1024.2
20260502053128 36 215 0.0 0.0 0.00 0.00 0.00 92 1024.3
20260502051522 35 215 0.0 0.0 0.00 0.00 0.00 92 1024.3
20260502050107 35 215 0.0 0.0 0.00 0.00 0.00 92 1024.3
20260502044521 35 215 0.0 0.0 0.00 0.00 0.00 94 1024.3
20260502043118 33 215 0.0 0.0 0.00 0.00 0.00 94 1024.3
20260502041537 33 215 0.0 0.0 0.00 0.00 0.00 93 1024.5
20260502040131 34 215 0.0 0.0 0.00 0.00 0.00 93 1024.4
20260502034559 33 215 0.0 0.0 0.00 0.00 0.00 93 1024.3
20260502033017 34 215 0.0 0.0 0.00 0.00 0.00 93 1024.3
20260502031611 34 215 0.0 0.0 0.00 0.00 0.00 92 1024.3
20260502030029 35 215 0.0 0.0 0.00 0.00 0.00 91 1024.5
20260502024620 35 215 0.0 0.0 0.00 0.00 0.00 92 1024.5
20260502023043 35 215 0.0 0.0 0.00 0.00 0.00 92 1024.7
20260502021630 35 215 0.0 0.0 0.00 0.00 0.00 92 1024.7
20260502020043 35 215 0.0 0.0 0.00 0.00 0.00 92 1024.6
20260502014534 35 215 0.0 0.0 0.00 0.00 0.00 89 1024.6
20260502013129 36 215 0.0 0.0 0.00 0.00 0.00 91 1024.6
20260502011539 36 215 0.0 0.0 0.00 0.00 0.00 90 1024.6
20260502010130 37 215 0.0 0.0 0.00 0.00 0.00 88 1024.6
20260502004543 37 215 0.0 0.0 0.00 0.00 0.00 88 1024.6
20260502003006 37 215 0.0 0.0 0.00 0.00 0.00 88 1024.7